Location: Cheching
(60.0667°N, 164.2167°W)
Time: 00:19:32
(UTC+00:00)

DX 1 - Pass Details

Date: 01 February 2021
Orbit: 618 x 631 km, 98.5° (Epoch: 07 March)

Event Time Altitude Azimuth Distance (km) Brightness Sun altitude
Rises 15:13:37 0° 127° (SE) 2,907 ? -29.0°
Reaches altitude 10° 15:15:59 10° 118° (ESE) 2,002 ? -28.7°
Maximum altitude 15:19:48 31° 56° (NE) 1,105 ? -28.3°
Drops below altitude 10° 15:23:38 10° 355° (N) 2,006 ? -27.8°
Enters shadow 15:23:57 - 353° (N) 2,122 ? -27.8°
